Probability
0 0 0 0 0 0 0 0 0 0 0 0 0 0 0 0 0 0 0 0 0 0 0 0 0 0 0 0 0 0 0 0 0 0 0 0 0 0 0 0 0 0 0 0 0 0 0 0 0
0 0 0 0 0 0 0 0 0 0 0 0 0 0 0 0 0 0 0 0 0 0 0 0 0 0 0 0 0 0 0 0 0 0 0 0 0 0 0 0 0 0 0 0 0 0 0 0 0
0 0 0 0 0 0 0 0 0 0 0 0 0 0 0 0 0 0 0 0 0 0 0 0 0 0 0 0 0 0 0 0 0 0 0 0 0 0 0 0 0 0 0 0 0 0 0 0 0
0 0 0 0 0 0 0 0 0 0 0 0 0 0 0 0 0 0 0 0 0 0 0 0 0 0 0 0 0 0 0 0 0 0 0 0 0 0 0 0 0 0 0 0 0 0 0 0 0
0 0 0 0 0 0 0 0 0 0 0 0 0 0 0 0 0 0 0 0 0 0 0 0 0 0 0 0 0 0 0 0 0 0 0 0 0 0 0 0 0 0 0 0 0 0 0 0 0
0 0 0 0 0 0 0 0 0 0 0 0 0 0 0 0 0 0 0 0 0 0 0 0 0 0 0 0 0 0 0 0 0 0 0 0 0 0 0 0 0 0 0 0 0 0 0 0 0
0 0 0 0 0 0 0 0 0 0 0 0 0 0 0 0 0 0 0 0 0 0 0 0 0 0 0 0 0 0 0 0 0 0 0 0 0 0 0 0 0 0 0 0 0 0 0 0 0
0 0 0 0 0 0 0 0 0 0 0 0 0 0 0 0 0 0 0 0 0 0 0 0 0 0 0 0 0 0 0 0 0 0 0 0 0 0 0 0 0 0 0 0 0 0 0 0 0
0 0 0 0 0 0 0 0 0 0 0 0 0 0 0 0 0 0 0 0 0 0 0 0 0 0 0 0 0 0 0 0 0 0 0 0 0 0 0 0 0 0 0 0 0 0 0 0 0
0 0 0 0 0 0 0 0 0 0 0 0 0 0 0 0 0 0 0 0 0 0 0 0 0 0 0 0 0 0 0 0 0 0 0 0 0 0 0 0 0 0 0 0 0 0 0 0 0
0 0 0 0 0 0 0 0 0 0 0 0 0 0 0 0 0 0 0 0 0 0 0 0 0 0 0 0 0 0 0 0 0 0 0 0 0 0 0 0 0 0 0 0 0 0 0 0 0
0 0 0 0 0 0 0 0 0 0 0 0 0 0 0 0 0 0 0 0 0 0 0 0 0 0 0 0 0 0 0 0 0 0 0 0 0 0 0 0 0 0 0 0 0 0 0 0 0
0 0 0 0 0 0 0 0 0 0 0 0 0 0 0 0 0 0 0 0 0 0 0 0 0 0 0 0 0 0 0 0 0 0 0 0 0 0 0 0 0 0 0 0 0 0 0 0 0
0 0 0 0 0 0 0 0 0 0 0 0 0 0 0 0 0 0 0 0 0 0 0 0 0 0 0 0 0 0 0 0 0 0 0 0 0 0 0 0 0 0 0 0 0 0 0 0 0
0 0 0 0 0 0 0 0 0 0 0 0 0 0 0 0 0 0 0 0 0 0 0 0 0 0 0 0 0 0 0 0 0 0 0 0 0 0 0 0 0 0 0 0 0 0 0 0 0
0 0 0 0 0 0 0 0 0 0 0 0 0 0 0 0 0 0 0 0 0 0 0 0 0 0 0 0 0 0 0 0 0 0 0 0 0 0 0 0 0 0 0 0 0 0 0 0 0
0 0 0 0 0 0 0 0 0 0 0 0 0 0 0 0 0 0 0 0 0 0 0 0 0 0 0 0 0 0 0 0 0 0 0 0 0 0 0 0 0 0 0 0 0 0 0 0 0
0 0 0 0 0 0 0 0 0 0 0 0 0 0 0 0 0 0 0 0 0 0 0 0 0 0 0 0 0 0 0 0 0 0 0 0 0 0 0 0 0 0 0 0 0 0 0 0 0
0 0 0 0 0 0 0 0 0 0 0 0 0 0 0 0 0 0 0 0 0 0 0 0 0 0 0 0 0 0 0 0 0 0 0 0 0 0 0 0 0 0 0 0 0 0 0 0 0
0 0 0 0 0 0 0 0 0 0 0 0 0 0 0 0 0 0 0 0 0 0 0 0 0 0 0 0 0 0 0 0 0 0 0 0 0 0 0 0 0 0 0 0 0 0 0 0 0
0 0 0 0 0 0 0 0 0 0 0 0 0 0 0 0 0 0 0 0 0 0 0 0 0 0 0 0 0 0 0 0 0 0 0 0 0 0 0 0 0 0 0 0 0 0 0 0 0
0 0 0 0 0 0 0 0 0 0 0 0 0 0 0 0 0 0 0 0 0 0 0 0 0 0 0 0 0 0 0 0 0 0 0 0 0 0 0 0 0 0 0 0 0 0 0 0 0
0 0 0 0 0 0 0 0 0 0 0 0 0 0 0 0 0 0 0 0 0 0 0 0 0 0 0 0 0 0 0 0 0 0 0 0 0 0 0 0 0 0 0 0 0 0 0 0 0
0 0 0 0 0 0 0 0 0 0 0 0 0 0 0 0 0 0 0 0 0 0 0 0 0 0 0 0 0 0 0 0 0 0 0 0 0 0 0 0 0 0 0 0 0 0 0 0 0
0 0 0 0 0 0 0 0 0 0 0 0 0 0 0 0 0 0 0 0 0 0 0 0 0 0 0 0 0 0 0 0 0 0 0 0 0 0 0 0 0 0 0 0 0 0 0 0 0
0 0 0 0 0 0 0 0 0 0 0 0 0 0 0 0 0 0 0 0 0 0 0 0 0 0 0 0 0 0 0 0 0 0 0 0 0 0 0 0 0 0 0 0 0 0 0 0 0
0 0 0 0 0 0 0 0 0 0 0 0 0 0 0 0 0 0 0 0 0 0 0 0 0 0 0 0 0 0 0 0 0 0 0 0 0 0 0 0 0 0 0 0 0 0 0 0 0
0 0 0 0 0 0 0 0 0 0 0 0 0 0 0 0 0 0 0 0 0 0 0 0 0 0 0 0 0 0 0 0 0 0 0 0 0 0 0 0 0 0 0 0 0 0 0 0 0
0 0 0 0 0 0 0 0 0 0 0 0 0 0 0 0 0 0 0 0 0 0 0 0 0 0 0 0 0 0 0 0 0 0 0 0 0 0 0 0 0 0 0 0 0 0 0 0 0
0 0 0 0 0 0 0 0 0 0 0 0 0 0 0 0 0 0 0 0 0 0 0 0 0 0 0 0 0 0 0 0 0 0 0 0 0 0 0 0 0 0 0 0 0 0 0 0 0
Height
5884 5885 5885 5886 5887 5888 5887 5887 5886 5886 5886 5886 5885 5885 5885 5885 5885 5886 5883 5881 5880 5879 5878 5877 5876 5875 5874 5873 5872 5871 5870 5869 5868 5867 5866 5865 5864 5863 5862 5861 5860 5859 5858 5857 5857 5856 5855 5855 5854
5885 5886 5887 5888 5888 5888 5888 5887 5887 5886 5886 5885 5885 5884 5884 5883 5882 5882 5880 5879 5878 5877 5876 5875 5874 5873 5872 5871 5869 5868 5867 5866 5865 5864 5863 5862 5860 5859 5858 5857 5856 5855 5854 5853 5852 5851 5850 5849 5849
5887 5887 5889 5889 5888 5888 5888 5887 5887 5886 5885 5885 5884 5883 5882 5882 5881 5880 5879 5877 5876 5875 5874 5872 5871 5870 5869 5868 5867 5865 5864 5863 5862 5861 5859 5858 5857 5855 5854 5853 5851 5850 5849 5848 5846 5845 5845 5844 5843
5889 5889 5890 5890 5889 5889 5888 5887 5886 5885 5885 5884 5883 5882 5881 5880 5879 5878 5876 5875 5874 5872 5871 5870 5869 5868 5866 5865 5864 5862 5861 5860 5858 5857 5855 5854 5853 5851 5849 5848 5846 5845 5844 5842 5841 5840 5839 5837 5836
5890 5890 5890 5890 5889 5888 5887 5886 5885 5884 5883 5882 5881 5880 5879 5878 5877 5875 5874 5873 5872 5870 5869 5868 5866 5865 5863 5862 5861 5859 5858 5856 5855 5853 5852 5850 5848 5847 5845 5843 5842 5840 5838 5836 5835 5833 5832 5831 5830
5891 5890 5890 5889 5888 5887 5886 5885 5884 5883 5882 5880 5879 5878 5877 5876 5874 5873 5872 5871 5869 5868 5866 5865 5864 5862 5861 5859 5858 5856 5854 5853 5851 5849 5848 5846 5844 5842 5841 5839 5837 5835 5833 5831 5829 5827 5825 5824 5822
5891 5890 5890 5889 5887 5886 5885 5883 5882 5880 5879 5878 5877 5876 5875 5873 5872 5871 5870 5868 5867 5866 5864 5863 5861 5859 5858 5856 5854 5853 5851 5849 5847 5845 5844 5842 5840 5838 5836 5834 5832 5829 5827 5825 5823 5821 5819 5817 5815
5890 5890 5889 5888 5886 5885 5884 5881 5880 5879 5877 5876 5875 5874 5873 5872 5870 5869 5868 5866 5865 5863 5862 5860 5858 5857 5855 5853 5851 5850 5848 5846 5844 5842 5840 5838 5835 5833 5831 5828 5826 5824 5821 5819 5816 5814 5811 5809 5807
5889 5890 5888 5886 5885 5884 5882 5880 5878 5877 5875 5874 5872 5871 5870 5869 5868 5867 5865 5864 5862 5861 5859 5857 5856 5854 5852 5850 5848 5846 5844 5842 5840 5838 5835 5833 5830 5828 5825 5823 5820 5818 5815 5812 5809 5806 5803 5801 5798
5888 5888 5886 5885 5883 5882 5880 5878 5876 5875 5873 5872 5870 5869 5868 5866 5865 5864 5863 5861 5860 5858 5856 5854 5853 5851 5849 5847 5845 5842 5840 5838 5836 5833 5831 5828 5825 5823 5820 5817 5814 5811 5808 5805 5801 5798 5795 5792 5789
5887 5886 5884 5883 5881 5879 5878 5876 5874 5872 5871 5870 5868 5867 5865 5864 5863 5862 5860 5859 5857 5855 5854 5852 5850 5848 5845 5843 5841 5839 5836 5834 5831 5828 5825 5823 5820 5817 5813 5810 5807 5803 5800 5797 5793 5790 5786 5783 5779
5885 5884 5882 5881 5879 5877 5875 5874 5872 5870 5869 5867 5866 5864 5863 5861 5860 5859 5857 5856 5854 5852 5850 5848 5846 5844 5842 5840 5837 5835 5832 5829 5827 5823 5820 5817 5814 5810 5807 5803 5799 5796 5792 5788 5784 5780 5776 5772 5769
5883 5882 5880 5878 5876 5875 5873 5871 5869 5867 5866 5864 5862 5861 5860 5858 5857 5856 5854 5852 5851 5849 5847 5845 5842 5840 5838 5835 5833 5830 5828 5825 5822 5818 5815 5811 5808 5804 5800 5796 5792 5788 5784 5779 5775 5771 5766 5762 5758
5881 5879 5877 5875 5873 5872 5870 5868 5865 5864 5863 5861 5859 5858 5856 5855 5853 5852 5850 5849 5847 5845 5843 5841 5838 5836 5834 5831 5829 5826 5823 5820 5816 5813 5809 5806 5802 5798 5793 5789 5784 5780 5775 5771 5766 5761 5756 5751 5747
5878 5876 5875 5872 5870 5869 5868 5866 5862 5861 5859 5857 5856 5854 5853 5851 5849 5848 5846 5845 5843 5841 5839 5837 5834 5832 5829 5826 5824 5821 5818 5814 5811 5807 5804 5799 5795 5791 5786 5781 5777 5771 5766 5761 5756 5751 5745 5740 5735
5875 5873 5871 5869 5867 5865 5865 5863 5858 5856 5855 5853 5852 5850 5848 5847 5845 5843 5841 5840 5838 5836 5834 5832 5829 5827 5824 5821 5818 5815 5812 5808 5805 5801 5797 5793 5788 5783 5778 5773 5768 5763 5757 5751 5746 5740 5735 5729 5723
5871 5870 5867 5865 5863 5861 5860 5860 5855 5851 5850 5849 5847 5845 5844 5842 5840 5838 5836 5835 5833 5831 5829 5827 5824 5821 5818 5815 5812 5809 5806 5802 5798 5794 5789 5785 5780 5775 5770 5764 5759 5753 5747 5741 5735 5729 5723 5717 5711
5867 5865 5863 5861 5859 5857 5856 5855 5851 5846 5845 5844 5841 5840 5838 5837 5834 5832 5831 5829 5827 5825 5823 5820 5818 5815 5812 5809 5806 5802 5798 5794 5790 5786 5781 5776 5772 5766 5761 5755 5749 5743 5737 5730 5724 5718 5711 5705 5698
5862 5860 5859 5857 5854 5852 5851 5849 5846 5841 5839 5838 5835 5834 5832 5830 5828 5826 5825 5823 5821 5818 5816 5813 5811 5807 5804 5801 5798 5795 5791 5786 5782 5777 5772 5767 5762 5757 5751 5745 5738 5732 5726 5719 5712 5705 5699 5692 5685
5857 5855 5854 5852 5849 5847 5846 5844 5839 5835 5833 5831 5829 5827 5825 5823 5821 5819 5818 5816 5813 5811 5808 5805 5803 5799 5796 5793 5790 5787 5782 5778 5773 5768 5762 5757 5752 5746 5740 5734 5727 5721 5714 5707 5700 5693 5686 5678 5671
5851 5849 5848 5846 5844 5841 5839 5840 5834 5830 5826 5824 5822 5820 5818 5816 5814 5812 5810 5808 5805 5803 5800 5797 5794 5791 5787 5784 5780 5777 5772 5768 5763 5757 5752 5747 5741 5735 5729 5722 5715 5708 5702 5695 5687 5680 5673 5665 5657
5846 5843 5842 5839 5837 5835 5832 5831 5830 5824 5820 5817 5815 5812 5810 5808 5806 5804 5802 5800 5797 5794 5791 5788 5785 5782 5778 5774 5771 5767 5762 5758 5752 5747 5741 5735 5729 5723 5717 5710 5702 5695 5688 5681 5674 5667 5659 5651 5643
5839 5837 5836 5833 5831 5830 5826 5824 5823 5818 5815 5811 5808 5805 5803 5801 5798 5796 5793 5791 5788 5785 5782 5779 5775 5772 5768 5764 5760 5756 5751 5746 5741 5735 5729 5723 5717 5710 5704 5696 5689 5682 5675 5667 5660 5652 5645 5636 5628
5833 5831 5829 5827 5825 5825 5821 5818 5815 5811 5808 5804 5801 5798 5795 5793 5790 5787 5784 5782 5779 5776 5773 5769 5766 5762 5758 5753 5749 5744 5739 5734 5728 5723 5717 5710 5704 5697 5690 5682 5675 5668 5661 5653 5645 5638 5630 5621 5613
5827 5825 5822 5820 5819 5818 5815 5812 5809 5803 5799 5796 5793 5790 5787 5785 5782 5779 5776 5773 5770 5766 5763 5759 5756 5752 5747 5742 5737 5732 5726 5720 5715 5709 5703 5696 5690 5683 5676 5668 5661 5654 5646 5638 5630 5622 5614 5606 5597
5822 5820 5817 5813 5811 5810 5809 5806 5803 5797 5792 5788 5785 5782 5780 5777 5774 5771 5767 5764 5760 5757 5753 5749 5745 5740 5735 5730 5724 5719 5713 5707 5701 5695 5688 5682 5675 5668 5661 5653 5646 5638 5631 5623 5615 5606 5598 5590 5581
5816 5814 5810 5807 5803 5802 5801 5801 5797 5790 5785 5781 5777 5774 5772 5769 5766 5762 5758 5754 5751 5747 5742 5738 5733 5728 5722 5717 5711 5705 5699 5693 5687 5680 5673 5666 5659 5652 5645 5638 5630 5623 5615 5607 5598 5590 5582 5573 5565
5811 5807 5804 5800 5795 5792 5791 5792 5789 5783 5778 5773 5769 5766 5763 5760 5757 5752 5748 5744 5740 5735 5730 5726 5720 5715 5709 5703 5697 5691 5685 5678 5672 5665 5658 5651 5644 5636 5629 5622 5614 5606 5599 5590 5582 5574 5566 5557 5548
5805 5802 5797 5794 5790 5785 5780 5784 5781 5774 5768 5764 5762 5758 5754 5751 5747 5742 5738 5733 5728 5723 5718 5712 5707 5701 5695 5689 5683 5677 5670 5663 5656 5649 5642 5635 5628 5620 5613 5606 5598 5590 5582 5574 5566 5558 5550 5541 5533
5798 5795 5791 5788 5783 5777 5772 5775 5772 5764 5758 5753 5750 5747 5743 5739 5735 5730 5726 5721 5715 5710 5704 5698 5692 5686 5680 5674 5668 5661 5654 5647 5640 5634 5627 5619 5611 5604 5596 5589 5581 5573 5566 5558 5550 5542 5534 5526 5517
Wind_Speed
12 12 11 10 9 8 7 6 6 5 4 3 2 2 2 3 4 5 6 7 8 9 9 10 10 11 11 12 12 13 13 14 14 15 15 16 17 17 18 18 19 20 20 21 21 22 22 23 23
13 12 11 10 9 8 6 5 4 4 3 2 3 4 4 6 7 8 9 9 10 10 11 11 11 11 12 12 13 14 14 14 15 16 17 17 18 18 19 20 21 21 22 23 23 24 24 25 26
12 10 10 8 7 6 4 3 3 3 4 5 6 7 7 8 9 9 10 10 11 11 11 11 12 12 12 13 14 14 14 15 16 17 17 18 19 19 20 21 22 23 23 24 25 25 26 27 28
9 9 7 6 4 3 2 3 3 5 6 7 8 9 9 9 10 10 11 11 11 11 12 12 12 13 13 13 14 14 15 16 16 17 18 19 20 20 21 22 23 23 24 25 26 27 28 29 30
7 6 5 4 3 3 4 5 6 7 8 8 9 9 9 10 10 10 11 11 11 11 12 12 12 13 13 14 14 15 16 16 17 18 18 19 20 21 22 22 23 24 25 26 27 28 29 30 31
5 4 3 3 4 5 6 7 8 8 9 9 9 9 9 9 9 10 10 11 11 11 12 12 12 13 14 14 15 15 16 17 18 18 19 19 20 21 22 23 24 24 25 26 28 29 30 31 32
3 3 4 5 6 7 8 9 9 9 9 9 9 9 9 8 9 9 10 10 11 11 11 12 12 13 14 14 15 16 16 17 18 19 19 20 21 21 22 23 24 25 26 27 28 29 30 31 32
3 5 6 7 8 9 9 9 9 9 9 9 8 8 8 8 8 9 9 10 10 10 11 12 12 13 14 14 15 16 17 17 18 19 20 21 22 23 24 25 25 26 27 29 29 30 31 33 34
5 6 7 9 9 10 10 10 9 9 9 8 8 8 8 8 8 8 9 10 10 10 11 12 12 13 14 15 16 17 17 18 19 20 21 22 23 25 26 27 28 29 30 31 32 33 34 35 36
6 8 9 10 11 11 11 10 10 10 9 8 8 8 8 8 8 9 9 10 10 11 12 12 13 14 15 16 17 17 18 19 20 21 22 24 25 26 28 29 31 32 33 34 35 36 37 37 38
8 10 11 12 12 12 11 11 11 10 10 9 9 9 9 8 8 9 9 10 11 12 12 13 14 15 16 17 18 18 19 20 21 22 24 25 27 28 30 31 33 34 36 37 38 39 39 40 41
10 11 12 13 13 13 12 12 12 12 11 10 10 10 10 10 9 10 10 11 11 12 13 14 15 15 16 18 18 19 20 21 22 24 25 27 28 30 31 33 34 36 37 38 40 41 42 43 44
12 13 14 15 14 14 13 13 13 14 12 12 12 12 12 11 11 11 11 12 13 14 14 15 16 17 18 19 19 20 21 23 24 25 27 28 30 32 33 35 36 38 39 40 41 42 44 45 46
14 15 16 17 16 16 15 15 16 15 14 14 14 14 14 14 13 13 14 14 15 15 16 16 17 18 19 20 21 22 23 24 25 27 28 30 31 33 35 36 38 40 41 42 43 44 45 46 48
17 17 18 19 18 17 16 17 18 17 16 16 16 16 16 16 16 16 16 16 17 17 18 18 19 20 20 22 23 24 25 26 27 29 30 32 33 35 37 39 40 42 43 44 45 46 47 48 50
19 19 20 21 21 19 18 16 22 19 18 18 19 19 18 18 18 19 19 19 19 19 20 20 21 22 23 24 25 26 27 29 30 31 33 34 36 37 39 41 43 44 46 47 48 49 50 51 52
20 21 21 23 22 21 20 17 23 24 21 20 21 21 21 21 21 21 21 21 22 22 22 22 23 24 25 26 27 29 30 31 33 34 36 37 38 40 42 44 45 47 48 50 51 51 52 53 54
22 22 23 24 25 23 22 19 22 27 25 22 23 23 23 23 24 24 24 24 24 24 25 25 26 27 28 28 30 31 33 34 36 37 39 40 41 43 45 47 49 50 51 52 53 54 54 55 56
25 25 25 26 26 25 24 22 23 27 27 25 25 25 25 25 26 26 26 26 26 27 27 28 29 30 30 31 33 34 36 37 39 40 42 43 44 46 48 50 51 53 54 55 55 56 56 57 57
27 27 27 27 28 27 25 22 25 27 27 27 26 27 27 27 28 28 28 28 29 29 30 31 32 33 34 35 36 37 39 40 42 44 45 47 48 49 51 53 54 55 56 56 57 57 58 59 59
28 30 29 29 28 28 28 21 23 26 27 27 27 28 28 29 29 30 30 30 31 32 34 34 35 36 38 39 40 41 43 44 45 47 49 50 52 53 54 55 57 57 58 58 59 59 60 60 60
29 30 30 30 30 29 29 26 22 24 26 27 28 28 29 30 31 31 32 33 34 35 37 37 39 40 41 43 44 45 46 47 49 51 52 53 55 56 57 58 59 59 59 60 61 61 61 61 62
29 30 30 30 30 29 28 28 24 24 25 27 28 29 30 31 32 33 34 35 37 38 39 40 42 43 45 46 47 48 49 51 52 53 54 56 57 58 59 60 61 61 61 62 63 62 62 63 63
29 30 31 30 30 28 27 27 25 26 25 26 28 29 30 32 34 35 37 38 39 41 42 43 44 46 47 49 50 51 52 54 55 55 56 58 59 59 60 62 62 63 63 64 64 64 64 64 64
28 30 32 32 30 29 27 26 26 28 28 28 29 30 31 33 34 36 38 40 42 43 44 46 47 48 50 51 52 53 55 56 57 58 59 60 60 60 62 63 64 64 65 66 66 66 65 65 66
27 29 31 33 33 31 27 25 25 28 30 31 32 32 32 34 35 37 39 41 43 45 46 48 49 50 51 53 54 55 56 57 58 59 61 61 61 62 63 65 66 66 66 67 67 67 67 67 67
28 29 31 33 35 34 30 26 24 29 32 34 35 35 35 36 37 39 40 42 44 45 47 48 49 51 53 54 55 56 57 58 59 60 61 61 62 63 65 66 67 67 67 68 68 67 67 68 68
28 30 32 33 36 38 36 30 30 32 32 35 36 37 38 38 39 40 41 42 44 45 47 48 50 51 52 54 55 57 58 59 60 61 62 63 64 66 66 67 67 67 68 67 67 66 67 68 66
29 30 32 34 36 39 42 36 33 34 37 39 40 40 41 41 41 42 42 43 44 45 47 48 50 51 53 54 56 57 58 59 60 61 62 64 66 66 67 68 68 67 66 66 66 66 66 65 64
31 32 34 36 38 40 44 41 35 39 43 45 45 44 44 44 44 45 45 45 46 47 48 49 50 51 53 54 56 57 59 60 61 62 63 65 66 67 68 67 66 65 65 65 65 65 64 63 62
Wind_Direction
102 101 100 97 97 92 89 87 83 79 76 70 55 26 352 326 314 308 304 301 300 299 298 299 300 301 301 301 302 302 301 300 299 298 296 295 294 292 291 290 289 289 288 287 286 284 283 281 281
100 99 98 97 95 92 87 77 68 53 33 4 340 327 316 310 306 304 302 300 299 299 299 300 301 301 302 302 302 302 301 299 298 297 296 295 294 293 291 291 290 289 288 287 286 284 283 282 281
99 97 97 94 91 88 81 61 36 4 338 322 314 310 307 305 304 303 302 301 301 301 302 303 304 304 304 303 303 302 301 299 298 297 296 295 294 293 292 292 291 290 289 287 286 285 284 283 282
96 94 92 88 77 62 33 1 340 325 316 309 305 302 301 301 302 303 303 304 304 304 305 306 306 306 305 305 305 304 302 300 299 298 297 296 295 294 293 293 292 291 290 288 287 286 285 284 283
92 88 81 64 29 354 335 326 319 314 310 306 302 299 298 299 301 303 304 305 305 306 308 309 308 308 309 309 308 306 304 302 300 299 298 298 297 296 295 294 293 293 292 290 289 288 286 285 284
85 70 50 12 342 329 324 319 315 311 307 304 301 297 296 297 301 304 305 306 308 309 311 312 313 313 313 311 310 308 307 305 303 302 301 300 299 298 298 297 296 295 294 293 291 290 289 288 286
54 26 360 340 329 324 322 320 316 311 309 305 301 298 299 301 303 306 307 309 312 314 315 315 315 314 314 313 312 311 309 308 306 305 303 303 302 302 302 301 300 299 298 296 295 293 292 291 289
8 350 340 334 328 323 320 317 314 310 308 303 300 300 300 302 305 308 311 313 316 317 317 316 316 316 316 315 314 313 312 310 308 307 306 306 306 305 305 304 303 302 301 299 298 297 296 294 293
339 333 330 329 325 320 317 314 311 308 306 302 299 299 300 303 306 308 311 313 315 317 317 317 318 318 317 316 315 315 314 312 311 310 309 309 308 308 307 305 304 303 302 301 300 299 297 296 295
323 322 323 323 321 319 315 312 309 305 304 299 296 296 298 301 304 306 309 311 312 315 317 318 319 319 318 317 317 316 315 314 313 312 311 311 310 309 308 306 305 304 303 302 301 299 298 297 296
315 315 317 318 318 316 313 310 307 303 300 298 293 292 293 295 299 302 305 306 308 311 314 315 317 317 317 317 317 316 316 316 315 315 314 313 312 311 309 308 307 305 304 302 301 299 298 297 297
308 310 312 313 313 312 310 308 304 300 297 295 291 289 288 291 293 296 299 301 303 306 308 311 313 314 315 316 316 316 317 317 317 317 316 316 315 314 313 312 310 308 306 304 302 300 299 298 297
304 307 309 309 310 308 307 304 299 295 295 291 289 288 287 288 289 290 293 295 297 300 303 306 307 309 312 313 314 314 315 316 316 317 317 317 317 316 315 314 312 310 308 307 304 302 300 299 298
302 305 307 307 307 305 304 299 294 293 292 288 287 287 286 286 286 287 288 291 292 295 298 301 302 304 307 309 310 311 312 313 313 314 315 316 316 316 315 314 313 312 310 308 306 304 302 300 299
300 302 304 305 304 303 301 297 292 291 289 287 286 286 285 285 285 284 286 287 288 291 293 295 298 300 302 304 305 306 307 308 309 310 312 313 314 315 315 315 314 313 311 310 308 306 304 302 301
297 299 301 301 302 302 300 297 291 290 287 286 285 284 284 283 283 282 283 284 285 287 289 291 293 295 297 299 300 302 303 304 305 307 308 310 311 312 312 313 313 313 312 311 309 307 306 304 302
294 297 299 299 300 301 299 296 290 290 288 286 284 282 281 281 280 280 281 283 284 284 286 288 290 292 294 296 297 298 300 301 302 304 305 307 309 310 311 311 311 311 311 310 309 308 306 305 303
292 295 296 297 299 300 299 297 289 288 288 285 282 281 280 279 277 278 280 281 282 283 284 286 288 289 291 293 294 296 298 299 300 302 303 305 307 308 309 310 310 310 310 309 309 307 306 305 303
291 293 295 296 298 300 300 299 290 287 288 284 281 280 279 277 276 278 278 279 280 281 283 284 286 288 290 292 293 295 296 298 299 301 302 303 305 306 307 308 308 309 309 308 307 307 306 305 303
290 293 295 297 298 300 301 303 295 290 288 285 282 279 278 276 276 276 277 278 279 280 282 283 285 287 289 291 292 295 295 297 298 299 301 303 304 305 306 306 307 307 307 307 306 306 306 305 304
290 293 295 297 298 301 301 303 296 293 290 287 283 280 278 276 275 276 276 277 278 279 280 283 285 287 289 290 292 294 295 297 297 298 300 301 302 303 304 305 305 305 306 306 305 305 305 305 304
291 293 296 298 300 303 303 305 300 294 292 289 285 282 279 277 277 277 277 277 277 278 280 283 284 286 288 289 292 293 295 296 296 297 299 299 301 302 302 303 304 304 305 305 305 305 305 304 304
292 294 296 298 300 304 304 305 305 297 292 289 286 283 280 278 277 276 277 277 278 279 281 283 284 286 288 290 292 293 294 295 295 297 298 298 299 300 301 302 303 303 304 304 304 305 305 304 304
295 296 297 299 301 303 305 307 306 299 295 291 288 285 282 280 278 277 278 278 279 281 282 284 285 287 288 290 291 293 293 294 295 296 296 297 298 299 300 301 302 302 303 303 304 305 305 304 305
298 300 301 302 303 306 309 312 310 304 301 296 291 289 286 284 282 282 282 282 282 283 285 286 287 288 289 290 291 292 293 293 294 295 295 296 297 298 298 299 301 301 302 303 304 304 304 304 305
300 302 304 305 306 307 310 313 311 305 302 299 295 293 291 289 288 287 286 286 286 287 288 288 289 289 290 290 291 292 293 293 294 294 295 295 296 296 297 299 300 301 301 302 303 303 304 304 305
302 302 304 305 305 305 307 310 309 304 302 300 298 297 298 297 296 295 293 292 291 291 290 290 290 290 290 291 291 292 292 293 293 294 295 296 296 296 297 299 300 301 301 301 301 302 304 304 305
303 304 306 306 307 307 307 311 313 307 302 299 299 300 301 300 300 299 297 295 294 293 292 291 291 290 290 290 290 291 292 292 293 294 294 295 296 297 298 299 299 300 300 300 301 302 303 304 305
303 304 304 305 305 307 307 311 314 307 302 300 300 301 300 299 298 297 296 295 295 294 293 293 292 292 292 291 292 292 293 293 293 294 294 295 296 297 297 298 299 299 300 300 300 301 302 303 304
302 304 305 305 305 306 305 309 311 305 302 302 303 302 302 301 301 300 299 298 297 296 295 294 294 293 293 292 293 293 293 293 293 294 295 295 296 297 298 298 299 299 299 299 300 301 301 302 304